Tracking 30061 objects as of 9-Dec-2024
HD Live streaming from Space Station
objects crossing your sky now

STARLINK-30074

Track STARLINK-30074 now!
10-day predictions
STARLINK-30074 is classified as:


NORAD ID: 57508
Int'l Code: 2023-113P
Perigee: 565.3 km
Apogee: 567.1 km
Inclination: 43.0 °
Period: 95.8 minutes
Semi major axis: 6937 km
RCS: Unknown
Launch date: August 7, 2023
Source: United States (US)
Launch site: AIR FORCE EASTERN TEST RANGE (AFETR)
Your satellite tracking list
Your tracking list is empty




NASA's NSSDC Master Catalog

Two Line Element Set (TLE):
1 57508U 23113P   24343.46007475  .00001159  00000-0  10086-3 0  9998
2 57508  43.0035 336.1666 0001269 263.9109  96.1589 15.02536420 74828
Source of the keplerian elements: AFSPC